Location: Alessandria
(44.9000°N, 8.6170°E)
Time: 13:01:08
(UTC+02:00)

ISS - Visible Passes

Search period start: 11 May 2021 00:00
Search period end: 21 May 2021 00:00
Orbit: 417 x 422 km, 51.6° (Epoch: 11 May)

Date Brightness Start Highest point End Pass type
(mag) Time Alt. Az. Time Alt. Az. Time Alt. Az.
11 May -1.5 02:04:21 26° NNE 02:04:21 26° NNE 02:06:20 10° NE visible
11 May -1.5 03:37:47 10° NW 03:40:41 26° N 03:43:36 10° ENE visible
11 May -3.0 05:14:37 10° NW 05:17:58 58° NNE 05:21:19 10° ESE visible
12 May -0.9 01:18:16 14° NE 01:18:16 14° NE 01:18:55 10° NE visible
12 May -1.5 02:51:12 16° NW 02:53:05 25° N 02:55:58 10° ENE visible
12 May -2.4 04:27:14 10° NW 04:30:28 42° NNE 04:33:42 10° E visible
13 May -1.6 02:05:02 25° NNW 02:05:29 25° N 02:08:23 10° NE visible
13 May -2.0 03:39:49 10° NW 03:42:56 33° NNE 03:46:03 10° E visible
13 May -3.7 05:16:34 10° WNW 05:19:55 62° SW 05:23:15 10° SE visible
14 May -1.5 01:18:38 25° NNE 01:18:38 25° NNE 01:20:52 10° NE visible
14 May -1.7 02:52:22 10° NW 02:55:21 28° N 02:58:21 10° ENE visible
14 May -3.8 04:29:07 10° WNW 04:32:30 85° NNE 04:35:53 10° ESE visible
14 May -3.9 22:49:58 10° SW 22:53:18 66° SSE 22:55:36 19° ENE visible
15 May -2.0 00:27:13 10° W 00:30:18 32° NNW 00:33:25 10° NE visible
15 May -1.5 02:04:52 10° NW 02:07:46 26° N 02:10:40 10° ENE visible
15 May -3.2 03:41:42 10° NW 03:45:02 58° NNE 03:48:23 10° ESE visible
15 May -2.6 05:18:52 10° W 05:21:39 24° SW 05:24:25 10° SSE visible
15 May -3.4 22:02:45 10° SSW 22:05:56 40° SE 22:09:07 10° ENE visible
15 May -2.4 23:39:34 10° W 23:42:46 40° NNW 23:45:59 10° NE visible
16 May -1.4 01:17:18 10° WNW 01:20:09 25° N 01:23:01 10° ENE visible
16 May -2.5 02:54:18 10° NW 02:57:32 42° NNE 03:00:47 10° E visible
16 May -3.3 04:31:10 10° WNW 04:34:21 37° SW 04:37:29 10° SSE visible
16 May -3.0 22:51:57 10° WSW 22:55:15 55° NNW 22:58:35 10° NE visible
17 May -1.4 00:29:40 10° WNW 00:32:33 25° N 00:35:26 10° NE visible
17 May -2.0 02:06:53 10° NW 02:10:00 33° NNE 02:13:06 10° E visible
17 May -3.8 03:43:38 10° WNW 03:46:59 61° SW 03:50:18 10° SE visible
17 May -3.7 22:04:25 10° WSW 22:07:47 80° NNW 22:11:09 10° ENE visible
17 May -1.6 23:41:59 10° WNW 23:44:57 28° N 23:47:55 10° NE visible
18 May -1.7 01:19:26 10° NW 01:22:25 28° N 01:22:57 27° NNE visible
18 May -1.9 22:54:18 10° W 22:57:22 32° NNW 23:00:27 10° NE visible
19 May -1.5 00:31:55 10° NW 00:34:49 26° N 00:36:34 17° NE visible
19 May -1.2 02:08:45 10° NW 02:09:29 15° NW 02:09:29 15° NW visible
19 May -2.3 22:06:37 10° W 22:09:49 40° NNW 22:13:02 10° NE visible
19 May -1.4 23:44:22 10° WNW 23:47:12 25° N 23:50:04 10° ENE visible
20 May -1.8 01:21:21 10° NW 01:23:19 28° NNW 01:23:19 28° NNW visible
20 May -1.5 22:56:44 10° WNW 22:59:36 25° N 23:02:29 10° NE visible
